Change the Weather History Date:

Thursday, November 8, 2012

  Actual Average Record
Temperature  
Mean Temperature 45 °F -  
Max Temperature 55 °F 59 °F 80 °F (2005)
Min Temperature 35 °F 39 °F 19 °F (1951)
Degree Days  
Heating Degree Days 20    
Moisture  
Dew Point 32 °F    
Average Humidity 61    
Maximum Humidity 70    
Minimum Humidity 47    
Precipitation  
Precipitation 0.00 in - - ()
Sea Level Pressure  
Sea Level Pressure 30.20 in    
Wind  
Wind Speed 2 mph (SSW)    
Max Wind Speed 9 mph    
Max Gust Speed -    
Visibility 10 miles    
Events      
Averages and records for this station are not official NWS values.
T = Trace of Precipitation, MM = Missing Value Source: NWS Daily Summary

Daily Weather History Graph

Daily Weather History Graph

Search for Another Location

Airport or City:

Trip Planner

Search our weather history database for the weather conditions in past years. The results will help you decide how hot, cold, wet, or windy it might be!

Date:

Astronomy

Nov. 08, 2012 Rise Set
Actual Time 6:24 AM CST 4:44 PM CST
Civil Twilight 5:56 AM CST 5:12 PM CST
Nautical Twilight 5:25 AM CST 5:43 PM CST
Astronomical Twilight 4:54 AM CST 6:14 PM CST
Moon 12:25 AM CST (11/8) 1:19 PM CST (11/8)
Length of Visible Light 11h 15m
Length of Day
10h 20m
Waning Crescent, 32% of the Moon is Illuminated
Nov 8
Waning Crescent
Nov 13
New
Nov 20
First Quarter
Nov 28
Full
Dec 6
Last Quarter

Hourly Weather History & Observations

Time (CST) Temp. Windchill Dew Point Humidity Pressure Visibility Wind Dir Wind Speed Gust Speed Precip Events Conditions
12:15 AM 44.6 °F - 33.8 °F 66% 30.17 in 10.0 mi Calm Calm - N/A   Overcast
12:35 AM 44.6 °F - 33.8 °F 66% 30.17 in 10.0 mi Calm Calm - N/A   Overcast
12:55 AM 42.8 °F - 33.8 °F 70% 30.17 in 10.0 mi Calm Calm - N/A   Overcast
1:15 AM 44.6 °F 43.1 °F 33.8 °F 66% 30.18 in 10.0 mi NW 3.5 mph - N/A   Overcast
1:35 AM 44.6 °F 42.2 °F 33.8 °F 66% 30.19 in 10.0 mi NW 4.6 mph - N/A   Overcast
1:55 AM 44.6 °F 41.4 °F 33.8 °F 66% 30.19 in 10.0 mi NW 5.8 mph - N/A   Overcast
2:15 AM 44.6 °F 41.4 °F 33.8 °F 66% 30.20 in 10.0 mi WNW 5.8 mph - N/A   Overcast
2:35 AM 44.6 °F 42.2 °F 33.8 °F 66% 30.20 in 10.0 mi NW 4.6 mph - N/A   Overcast
2:55 AM 44.6 °F 42.2 °F 33.8 °F 66% 30.20 in 10.0 mi NE 4.6 mph - N/A   Overcast
3:15 AM 44.6 °F 42.2 °F 33.8 °F 66% 30.20 in 10.0 mi NE 4.6 mph - N/A   Overcast
3:35 AM 44.6 °F 42.2 °F 33.8 °F 66% 30.20 in 10.0 mi NNE 4.6 mph - N/A   Overcast
3:56 AM 44.6 °F 43.1 °F 33.8 °F 66% 30.21 in 10.0 mi NNE 3.5 mph - N/A   Overcast
4:15 AM 44.6 °F 43.1 °F 33.8 °F 66% 30.21 in 10.0 mi North 3.5 mph - N/A   Overcast
4:35 AM 44.6 °F - 33.8 °F 66% 30.22 in 10.0 mi Calm Calm - N/A   Overcast
4:55 AM 44.6 °F - 33.8 °F 66% 30.22 in 10.0 mi Calm Calm - N/A   Overcast
5:15 AM 44.6 °F - 33.8 °F 66% 30.22 in 10.0 mi Calm Calm - N/A   Overcast
5:35 AM 44.6 °F - 33.8 °F 66% 30.22 in 10.0 mi Calm Calm - N/A   Overcast
5:55 AM 42.8 °F - 33.8 °F 70% 30.22 in 10.0 mi Calm Calm - N/A   Overcast
6:15 AM 42.8 °F - 33.8 °F 70% 30.23 in 10.0 mi Calm Calm - N/A   Overcast
6:35 AM 42.8 °F - 33.8 °F 70% 30.23 in 10.0 mi Calm Calm - N/A   Overcast
6:55 AM 44.6 °F - 33.8 °F 66% 30.24 in 10.0 mi Calm Calm - N/A   Overcast
7:15 AM 44.6 °F - 33.8 °F 66% 30.25 in 10.0 mi Calm Calm - N/A   Mostly Cloudy
7:35 AM 46.4 °F - 35.6 °F 66% 30.25 in 10.0 mi Calm Calm - N/A   Clear
7:55 AM 46.4 °F - 35.6 °F 66% 30.26 in 10.0 mi Calm Calm - N/A   Clear
8:15 AM 46.4 °F - 33.8 °F 62% 30.26 in 10.0 mi Calm Calm - N/A   Clear
8:35 AM 46.4 °F - 33.8 °F 62% 30.26 in 10.0 mi Calm Calm - N/A   Clear
8:55 AM 48.2 °F - 32.0 °F 54% 30.26 in 10.0 mi Calm Calm - N/A   Clear
9:15 AM 50.0 °F - 33.8 °F 54% 30.27 in 10.0 mi SSW 3.5 mph - N/A   Clear
9:35 AM 51.8 °F - 33.8 °F 50% 30.27 in 10.0 mi Calm Calm - N/A   Clear
10:15 AM 50.0 °F - 33.8 °F 54% 30.27 in 10.0 mi Calm Calm - N/A   Scattered Clouds
10:55 AM 53.6 °F - 35.6 °F 51% 30.26 in 10.0 mi SSW 4.6 mph - N/A   Overcast
11:15 AM 51.8 °F - 33.8 °F 50% 30.25 in 10.0 mi Calm Calm - N/A   Mostly Cloudy
11:35 AM 51.8 °F - 33.8 °F 50% 30.24 in 10.0 mi NNW 3.5 mph - N/A   Overcast
11:55 AM 53.6 °F - 35.6 °F 51% 30.23 in 10.0 mi West 4.6 mph - N/A   Overcast
12:15 PM 55.4 °F - 35.6 °F 47% 30.22 in 10.0 mi South 8.1 mph - N/A   Overcast
12:35 PM 55.4 °F - 35.6 °F 47% 30.21 in 10.0 mi South 4.6 mph - N/A   Mostly Cloudy
12:55 PM 55.4 °F - 35.6 °F 47% 30.20 in 10.0 mi SSE 3.5 mph - N/A   Scattered Clouds
1:15 PM 53.6 °F - 35.6 °F 51% 30.20 in 10.0 mi South 5.8 mph - N/A   Clear
1:35 PM 55.4 °F - 35.6 °F 47% 30.19 in 10.0 mi SW 3.5 mph - N/A   Clear
1:55 PM 55.4 °F - 35.6 °F 47% 30.19 in 10.0 mi WSW 4.6 mph - N/A   Clear
2:15 PM 55.4 °F - 35.6 °F 47% 30.19 in 10.0 mi SW 9.2 mph - N/A   Partly Cloudy
2:35 PM 55.4 °F - 35.6 °F 47% 30.19 in 10.0 mi Calm Calm - N/A   Clear
2:55 PM 55.4 °F - 35.6 °F 47% 30.18 in 10.0 mi SW 6.9 mph - N/A   Clear
3:35 PM 53.6 °F - 35.6 °F 51% 30.18 in 10.0 mi Calm Calm - N/A   Clear
3:55 PM 53.6 °F - 35.6 °F 51% 30.18 in 10.0 mi South 5.8 mph - N/A   Clear
4:15 PM 51.8 °F - 35.6 °F 54% 30.17 in 10.0 mi South 4.6 mph - N/A   Clear
4:35 PM 50.0 °F - 33.8 °F 54% 30.17 in 10.0 mi South 3.5 mph - N/A   Clear
4:55 PM 48.2 °F - 33.8 °F 58% 30.17 in 10.0 mi South 3.5 mph - N/A   Clear
5:15 PM 46.4 °F 45.2 °F 32.0 °F 57% 30.17 in 10.0 mi SSE 3.5 mph - N/A   Clear
5:35 PM 44.6 °F - 32.0 °F 61% 30.17 in 10.0 mi Calm Calm - N/A   Clear
5:55 PM 42.8 °F - 30.2 °F 61% 30.18 in 10.0 mi Calm Calm - N/A   Clear
6:15 PM 39.2 °F 37.0 °F 28.4 °F 65% 30.18 in 10.0 mi South 3.5 mph - N/A   Clear
6:35 PM 39.2 °F - 28.4 °F 65% 30.18 in 10.0 mi Calm Calm - N/A   Clear
6:55 PM 39.2 °F 37.0 °F 28.4 °F 65% 30.17 in 10.0 mi SSE 3.5 mph - N/A   Clear
7:15 PM 41.0 °F - 30.2 °F 65% 30.17 in 10.0 mi Calm Calm - N/A   Clear
7:35 PM 37.4 °F - 28.4 °F 70% 30.18 in 10.0 mi Calm Calm - N/A   Clear
7:55 PM 37.4 °F 34.9 °F 28.4 °F 70% 30.18 in 10.0 mi South 3.5 mph - N/A   Clear
8:15 PM 37.4 °F - 28.4 °F 70% 30.18 in 10.0 mi Calm Calm - N/A   Clear
8:35 PM 37.4 °F - 26.6 °F 65% 30.18 in 10.0 mi Calm Calm - N/A   Clear
8:55 PM 37.4 °F - 28.4 °F 70% 30.18 in 10.0 mi Calm Calm - N/A   Clear
9:15 PM 37.4 °F - 26.6 °F 65% 30.17 in 10.0 mi Calm Calm - N/A   Clear
9:35 PM 35.6 °F - 26.6 °F 70% 30.17 in 10.0 mi Calm Calm - N/A   Clear
9:55 PM 37.4 °F - 26.6 °F 65% 30.17 in 10.0 mi Calm Calm - N/A   Clear
10:15 PM 35.6 °F - 26.6 °F 70% 30.16 in 10.0 mi Calm Calm - N/A   Clear
10:35 PM 35.6 °F 32.8 °F 26.6 °F 70% 30.16 in 10.0 mi South 3.5 mph - N/A   Clear
10:55 PM 35.6 °F 32.8 °F 26.6 °F 70% 30.16 in 10.0 mi SSE 3.5 mph - N/A   Clear
11:15 PM 35.6 °F - 26.6 °F 70% 30.17 in 10.0 mi Calm Calm - N/A   Clear
11:35 PM 35.6 °F 32.8 °F 26.6 °F 70% 30.16 in 10.0 mi South 3.5 mph - N/A   Clear
11:55 PM 35.6 °F - 26.6 °F 70% 30.17 in 10.0 mi Calm Calm - N/A   Clear